nws-alerts: Checking more than four warning/county codes can delay the loading of your pages. You should use a cron job to get the data.
EllijayWeather Station Historical Data
Daily Summary for March 21, 2019 Units:  English    Metric   Both
Daily Weekly Monthly Yearly Custom
  High: Low: Average:
Temperature: 57.4 °F 39.4 °F 47.5 °F
Dew Point: 40.6 °F 30.2 °F 34.8 °F
Humidity: 83% 44% 63%
Wind Speed: 11.0mph 0.0mph 0.7mph
Wind Gust: 18.0mph - -
Wind- - WSW
Pressure: 30.13 in 29.92 in -
Precipitation: 0.00 in    
Historical Graphs
 
 
Tabular Data for March 21, 2019
Time Temperature Dew Point Pressure Wind Wind Speed Wind Gust Humidity Rainfall Rate (Hourly) solar
00:04 40.3 °F 30.9 °F 30.13 in Calm     69% 0.00 in meteobridge W/m2
00:09 40.3 °F 31.6 °F 30.13 in Calm     71% 0.00 in meteobridge W/m2
00:14 40.3 °F 31.3 °F 30.13 in Calm     70% 0.00 in meteobridge W/m2
00:19 40.1 °F 31.1 °F 30.12 in Calm     70% 0.00 in meteobridge W/m2
00:24 39.9 °F 30.6 °F 30.12 in Calm     69% 0.00 in meteobridge W/m2
00:29 39.9 °F 30.9 °F 30.12 in Calm     70% 0.00 in meteobridge W/m2
00:34 39.9 °F 30.9 °F 30.12 in Calm     70% 0.00 in meteobridge W/m2
00:39 39.9 °F 30.6 °F 30.12 in Calm     69% 0.00 in meteobridge W/m2
00:43 39.9 °F 31.3 °F 30.12 in Calm     71% 0.00 in meteobridge W/m2
00:49 39.7 °F 31.1 °F 30.12 in Calm     71% 0.00 in meteobridge W/m2
00:54 39.7 °F 31.1 °F 30.12 in Calm     71% 0.00 in meteobridge W/m2
00:59 39.7 °F 31.1 °F 30.12 in Calm     71% 0.00 in meteobridge W/m2
01:04 39.7 °F 30.7 °F 30.11 in Calm     70% 0.00 in meteobridge W/m2
01:09 39.6 °F 30.6 °F 30.11 in Calm     70% 0.00 in meteobridge W/m2
01:14 39.6 °F 30.9 °F 30.11 in Calm     71% 0.00 in meteobridge W/m2
01:19 39.6 °F 31.3 °F 30.11 in Calm     72% 0.00 in meteobridge W/m2
01:23 39.4 °F 31.1 °F 30.10 in Calm     72% 0.00 in meteobridge W/m2
01:29 39.4 °F 31.5 °F 30.10 in Calm     73% 0.00 in meteobridge W/m2
01:34 39.4 °F 31.5 °F 30.10 in Calm     73% 0.00 in meteobridge W/m2
01:39 39.4 °F 31.5 °F 30.10 in Calm     73% 0.00 in meteobridge W/m2
01:44 39.4 °F 31.8 °F 30.10 in Calm     74% 0.00 in meteobridge W/m2
01:49 39.4 °F 31.8 °F 30.10 in Calm     74% 0.00 in meteobridge W/m2
01:54 39.4 °F 31.5 °F 30.10 in Calm     73% 0.00 in meteobridge W/m2
01:59 39.6 °F 31.6 °F 30.09 in Calm     73% 0.00 in meteobridge W/m2
02:04 39.6 °F 32.0 °F 30.09 in Calm     74% 0.00 in meteobridge W/m2
02:09 39.6 °F 32.0 °F 30.09 in Calm     74% 0.00 in meteobridge W/m2
02:14 39.6 °F 32.0 °F 30.09 in Calm     74% 0.00 in meteobridge W/m2
02:19 39.4 °F 31.8 °F 30.09 in Calm     74% 0.00 in meteobridge W/m2
02:24 39.4 °F 31.8 °F 30.09 in Calm     74% 0.00 in meteobridge W/m2
02:29 39.4 °F 31.8 °F 30.09 in Calm     74% 0.00 in meteobridge W/m2
02:34 39.4 °F 31.8 °F 30.09 in Calm     74% 0.00 in meteobridge W/m2
02:39 39.4 °F 31.8 °F 30.09 in Calm     74% 0.00 in meteobridge W/m2
02:44 39.4 °F 32.2 °F 30.09 in Calm     75% 0.00 in meteobridge W/m2
02:49 39.4 °F 32.2 °F 30.09 in Calm     75% 0.00 in meteobridge W/m2
02:54 39.4 °F 32.5 °F 30.08 in Calm     76% 0.00 in meteobridge W/m2
02:59 39.4 °F 32.5 °F 30.08 in Calm     76% 0.00 in meteobridge W/m2
03:04 39.4 °F 32.5 °F 30.08 in Calm     76% 0.00 in meteobridge W/m2
03:09 39.4 °F 32.5 °F 30.08 in Calm     76% 0.00 in meteobridge W/m2
03:14 39.4 °F 32.5 °F 30.08 in Calm     76% 0.00 in meteobridge W/m2
03:19 39.6 °F 32.5 °F 30.07 in Calm     76% 0.00 in meteobridge W/m2
03:24 39.7 °F 32.5 °F 30.07 in Calm     75% 0.00 in meteobridge W/m2
03:29 39.7 °F 32.7 °F 30.06 in Calm     76% 0.00 in meteobridge W/m2
03:34 39.9 °F 32.9 °F 30.06 in Calm     76% 0.00 in meteobridge W/m2
03:39 39.9 °F 32.9 °F 30.05 in Calm     76% 0.00 in meteobridge W/m2
03:44 39.9 °F 32.7 °F 30.05 in Calm     75% 0.00 in meteobridge W/m2
03:49 39.9 °F 32.7 °F 30.04 in Calm     75% 0.00 in meteobridge W/m2
03:54 39.9 °F 32.4 °F 30.04 in Calm     74% 0.00 in meteobridge W/m2
03:59 39.9 °F 32.4 °F 30.04 in Calm     74% 0.00 in meteobridge W/m2
04:04 39.9 °F 32.7 °F 30.03 in Calm     75% 0.00 in meteobridge W/m2
04:09 39.7 °F 32.2 °F 30.03 in Calm     74% 0.00 in meteobridge W/m2
04:14 39.7 °F 32.5 °F 30.03 in Calm     75% 0.00 in meteobridge W/m2
04:19 39.7 °F 32.7 °F 30.02 in Calm     76% 0.00 in meteobridge W/m2
04:24 39.7 °F 32.7 °F 30.02 in Calm     76% 0.00 in meteobridge W/m2
04:29 39.7 °F 32.7 °F 30.02 in Calm     76% 0.00 in meteobridge W/m2
04:34 39.7 °F 32.5 °F 30.02 in Calm     75% 0.00 in meteobridge W/m2
04:39 39.7 °F 32.5 °F 30.01 in Calm     75% 0.00 in meteobridge W/m2
04:44 39.7 °F 32.7 °F 30.01 in Calm     76% 0.00 in meteobridge W/m2
04:49 39.7 °F 32.7 °F 30.01 in Calm     76% 0.00 in meteobridge W/m2
04:54 39.7 °F 33.1 °F 30.01 in Calm     77% 0.00 in meteobridge W/m2
04:59 39.7 °F 33.4 °F 30.01 in Calm     78% 0.00 in meteobridge W/m2
05:04 39.7 °F 33.1 °F 30.01 in Calm     77% 0.00 in meteobridge W/m2
05:09 39.7 °F 33.1 °F 30.00 in Calm     77% 0.00 in meteobridge W/m2
05:14 39.7 °F 33.1 °F 30.00 in Calm     77% 0.00 in meteobridge W/m2
05:19 39.7 °F 32.7 °F 30.00 in Calm     76% 0.00 in meteobridge W/m2
05:24 39.6 °F 32.5 °F 30.00 in Calm     76% 0.00 in meteobridge W/m2
05:29 39.7 °F 32.7 °F 30.00 in Calm     76% 0.00 in meteobridge W/m2
05:34 39.7 °F 33.1 °F 30.00 in Calm     77% 0.00 in meteobridge W/m2
05:39 39.6 °F 32.9 °F 30.00 in Calm     77% 0.00 in meteobridge W/m2
05:44 39.6 °F 32.9 °F 30.00 in Calm     77% 0.00 in meteobridge W/m2
05:49 39.6 °F 33.3 °F 30.00 in Calm     78% 0.00 in meteobridge W/m2
05:54 39.6 °F 33.3 °F 30.00 in Calm     78% 0.00 in meteobridge W/m2
05:59 39.6 °F 33.3 °F 30.00 in Calm     78% 0.00 in meteobridge W/m2
06:04 39.6 °F 33.3 °F 30.00 in Calm     78% 0.00 in meteobridge W/m2
06:09 39.6 °F 33.6 °F 30.00 in Calm     79% 0.00 in meteobridge W/m2
06:14 39.6 °F 33.6 °F 30.00 in Calm     79% 0.00 in meteobridge W/m2
06:19 39.6 °F 34.0 °F 30.00 in Calm     80% 0.00 in meteobridge W/m2
06:24 39.6 °F 34.0 °F 30.00 in Calm     80% 0.00 in meteobridge W/m2
06:29 39.6 °F 34.0 °F 29.99 in Calm     80% 0.00 in meteobridge W/m2
06:34 39.6 °F 34.0 °F 29.99 in Calm     80% 0.00 in meteobridge W/m2
06:39 39.4 °F 33.4 °F 29.99 in Calm     79% 0.00 in meteobridge W/m2
06:44 39.4 °F 33.8 °F 29.99 in Calm     80% 0.00 in meteobridge W/m2
06:49 39.4 °F 33.8 °F 30.00 in Calm     80% 0.00 in meteobridge W/m2
06:54 39.4 °F 33.8 °F 30.00 in Calm     80% 0.00 in meteobridge W/m2
06:59 39.4 °F 33.4 °F 30.00 in Calm     79% 0.00 in meteobridge W/m2
07:04 39.4 °F 33.8 °F 30.00 in Calm     80% 0.00 in meteobridge W/m2
07:09 39.6 °F 34.0 °F 30.00 in Calm     80% 0.00 in meteobridge W/m2
07:14 39.6 °F 34.0 °F 29.99 in Calm     80% 0.00 in meteobridge W/m2
07:19 39.6 °F 34.0 °F 29.99 in Calm     80% 0.00 in meteobridge W/m2
07:24 39.6 °F 34.2 °F 29.99 in Calm     81% 0.00 in meteobridge W/m2
07:29 39.4 °F 34.0 °F 29.99 in Calm     81% 0.00 in meteobridge W/m2
07:34 39.4 °F 34.0 °F 30.00 in Calm     81% 0.00 in meteobridge W/m2
07:39 39.4 °F 34.0 °F 30.00 in Calm     81% 0.00 in meteobridge W/m2
07:44 39.4 °F 34.0 °F 30.00 in Calm     81% 0.00 in meteobridge W/m2
07:49 39.4 °F 34.0 °F 30.00 in Calm     81% 0.00 in meteobridge W/m2
07:54 39.4 °F 34.0 °F 30.00 in Calm     81% 0.00 in meteobridge W/m2
07:59 39.4 °F 34.3 °F 30.00 in Calm     82% 0.00 in meteobridge W/m2
08:04 39.4 °F 34.7 °F 30.00 in Calm     83% 0.00 in meteobridge W/m2
08:09 39.4 °F 34.3 °F 29.99 in Calm     82% 0.00 in meteobridge W/m2
08:14 39.4 °F 34.3 °F 29.99 in Calm     82% 0.00 in meteobridge W/m2
08:19 39.6 °F 34.5 °F 29.99 in Calm     82% 0.00 in meteobridge W/m2
08:24 39.6 °F 34.5 °F 29.99 in Calm     82% 0.00 in meteobridge W/m2
08:29 39.6 °F 34.5 °F 29.99 in Calm     82% 0.00 in meteobridge W/m2
08:34 39.7 °F 34.7 °F 29.98 in Calm     82% 0.00 in meteobridge W/m2
08:39 39.9 °F 34.9 °F 29.98 in Calm     82% 0.00 in meteobridge W/m2
08:44 39.9 °F 34.9 °F 29.98 in Calm     82% 0.00 in meteobridge W/m2
08:49 40.3 °F 35.2 °F 29.98 in Calm     82% 0.00 in meteobridge W/m2
08:54 40.5 °F 35.4 °F 29.98 in Calm     82% 0.00 in meteobridge W/m2
08:59 40.5 °F 35.4 °F 29.98 in Calm     82% 0.00 in meteobridge W/m2
09:04 40.6 °F 35.6 °F 29.98 in Calm     82% 0.00 in meteobridge W/m2
09:09 40.6 °F 35.2 °F 29.98 in Calm     81% 0.00 in meteobridge W/m2
09:14 40.8 °F 35.4 °F 29.98 in Calm     81% 0.00 in meteobridge W/m2
09:19 41.0 °F 35.2 °F 29.98 in Calm     80% 0.00 in meteobridge W/m2
09:24 41.5 °F 35.8 °F 29.98 in Calm     80% 0.00 in meteobridge W/m2
09:29 42.1 °F 36.3 °F 29.98 in Calm     80% 0.00 in meteobridge W/m2
09:34 42.6 °F 37.2 °F 29.98 in Calm     81% 0.00 in meteobridge W/m2
09:39 43.5 °F 37.4 °F 29.98 in Calm     79% 0.00 in meteobridge W/m2
09:44 44.1 °F 36.7 °F 29.97 in Calm     75% 0.00 in meteobridge W/m2
09:49 44.6 °F 35.1 °F 29.97 in Calm     69% 0.00 in meteobridge W/m2
09:54 45.3 °F 35.1 °F 29.97 in Calm   1.0 mph 67% 0.00 in meteobridge W/m2
09:59 46.0 °F 34.2 °F 29.97 in Calm     63% 0.00 in meteobridge W/m2
10:04 46.6 °F 34.3 °F 29.97 in Calm     62% 0.00 in meteobridge W/m2
10:09 47.5 °F 34.3 °F 29.97 in Calm   3.0 mph 60% 0.00 in meteobridge W/m2
10:14 48.0 °F 34.0 °F 29.97 in Calm     58% 0.00 in meteobridge W/m2
10:19 48.7 °F 33.3 °F 29.97 in Calm     55% 0.00 in meteobridge W/m2
10:24 49.6 °F 33.6 °F 29.97 in Calm     54% 0.00 in meteobridge W/m2
10:29 50.2 °F 32.7 °F 29.97 in Calm   4.0 mph 51% 0.00 in meteobridge W/m2
10:34 50.7 °F 33.3 °F 29.97 in Calm     51% 0.00 in meteobridge W/m2
10:39 51.4 °F 32.9 °F 29.97 in NNW 0.9 mph 3.0 mph 49% 0.00 in meteobridge W/m2
10:44 51.8 °F 34.7 °F 29.97 in Calm     52% 0.00 in meteobridge W/m2
10:49 52.3 °F 33.8 °F 29.97 in NNW 2.0 mph 4.0 mph 49% 0.00 in meteobridge W/m2
10:54 52.7 °F 33.6 °F 29.97 in Calm   3.0 mph 48% 0.00 in meteobridge W/m2
10:59 53.1 °F 34.3 °F 29.97 in Calm   2.0 mph 49% 0.00 in meteobridge W/m2
11:04 53.4 °F 34.2 °F 29.97 in West 0.9 mph 6.0 mph 48% 0.00 in meteobridge W/m2
11:09 53.8 °F 34.5 °F 29.97 in Calm   4.0 mph 48% 0.00 in meteobridge W/m2
11:14 54.0 °F 33.6 °F 29.97 in Calm   1.0 mph 46% 0.00 in meteobridge W/m2
11:19 54.3 °F 34.5 °F 29.97 in Calm   1.0 mph 47% 0.00 in meteobridge W/m2
11:24 54.9 °F 35.1 °F 29.97 in Calm   3.0 mph 47% 0.00 in meteobridge W/m2
11:29 55.0 °F 34.7 °F 29.97 in Calm   3.0 mph 46% 0.00 in meteobridge W/m2
11:34 55.6 °F 34.0 °F 29.96 in Calm   3.0 mph 44% 0.00 in meteobridge W/m2
11:39 55.9 °F 35.4 °F 29.96 in NW 2.9 mph 3.0 mph 46% 0.00 in meteobridge W/m2
11:44 56.1 °F 34.5 °F 29.96 in Calm   1.0 mph 44% 0.00 in meteobridge W/m2
11:49 56.7 °F 35.1 °F 29.96 in Calm   1.0 mph 44% 0.00 in meteobridge W/m2
11:54 56.8 °F 35.8 °F 29.96 in NW 2.0 mph 8.0 mph 45% 0.00 in meteobridge W/m2
11:59 57.0 °F 37.0 °F 29.96 in Calm   1.0 mph 47% 0.00 in meteobridge W/m2
12:04 57.2 °F 37.2 °F 29.96 in NNE 2.0 mph 2.0 mph 47% 0.00 in meteobridge W/m2
12:09 57.4 °F 37.4 °F 29.96 in WNW 4.9 mph 9.0 mph 47% 0.00 in meteobridge W/m2
12:14 56.7 °F 37.2 °F 29.96 in NW 2.0 mph 11.0 mph 48% 0.00 in meteobridge W/m2
12:19 55.9 °F 36.5 °F 29.96 in Calm   6.0 mph 48% 0.00 in meteobridge W/m2
12:24 55.9 °F 37.6 °F 29.95 in Calm   4.0 mph 50% 0.00 in meteobridge W/m2
12:29 56.7 °F 37.8 °F 29.95 in WNW 2.0 mph 8.0 mph 49% 0.00 in meteobridge W/m2
12:34 56.7 °F 37.8 °F 29.96 in Calm   8.0 mph 49% 0.00 in meteobridge W/m2
12:39 56.8 °F 37.9 °F 29.96 in Calm   6.0 mph 49% 0.00 in meteobridge W/m2
12:44 56.5 °F 38.1 °F 29.96 in NW 2.9 mph 3.0 mph 50% 0.00 in meteobridge W/m2
12:49 56.8 °F 38.5 °F 29.96 in WNW 0.9 mph 5.0 mph 50% 0.00 in meteobridge W/m2
12:54 56.7 °F 37.8 °F 29.96 in NW 2.0 mph 4.0 mph 49% 0.00 in meteobridge W/m2
12:59 56.1 °F 38.3 °F 29.96 in NNW 0.9 mph 3.0 mph 51% 0.00 in meteobridge W/m2
13:04 55.6 °F 38.7 °F 29.96 in NE 2.9 mph 3.0 mph 53% 0.00 in meteobridge W/m2
13:09 55.0 °F 38.3 °F 29.96 in WNW 2.0 mph 6.0 mph 53% 0.00 in meteobridge W/m2
13:14 54.5 °F 38.1 °F 29.96 in Calm     54% 0.00 in meteobridge W/m2
13:19 54.0 °F 39.0 °F 29.96 in NW 0.9 mph 4.0 mph 57% 0.00 in meteobridge W/m2
13:24 53.4 °F 39.0 °F 29.96 in Calm   2.0 mph 58% 0.00 in meteobridge W/m2
13:29 52.9 °F 39.0 °F 29.96 in WNW 4.0 mph 8.0 mph 59% 0.00 in meteobridge W/m2
13:34 52.3 °F 39.4 °F 29.97 in WNW 0.9 mph 2.0 mph 61% 0.00 in meteobridge W/m2
13:39 52.0 °F 39.7 °F 29.97 in Calm   1.0 mph 63% 0.00 in meteobridge W/m2
13:44 51.6 °F 39.4 °F 29.97 in Calm   3.0 mph 63% 0.00 in meteobridge W/m2
13:49 51.4 °F 40.1 °F 29.97 in Calm     65% 0.00 in meteobridge W/m2
13:54 51.3 °F 40.3 °F 29.97 in Calm     66% 0.00 in meteobridge W/m2
13:59 51.3 °F 39.9 °F 29.97 in North 4.9 mph 7.0 mph 65% 0.00 in meteobridge W/m2
14:04 51.6 °F 40.3 °F 29.96 in NW 0.9 mph 5.0 mph 65% 0.00 in meteobridge W/m2
14:09 52.2 °F 40.3 °F 29.96 in Calm   9.0 mph 64% 0.00 in meteobridge W/m2
14:14 52.2 °F 40.3 °F 29.96 in WNW 0.9 mph 2.0 mph 64% 0.00 in meteobridge W/m2
14:19 52.0 °F 40.1 °F 29.96 in Calm   6.0 mph 64% 0.00 in meteobridge W/m2
14:24 51.6 °F 39.9 °F 29.96 in Calm   7.0 mph 64% 0.00 in meteobridge W/m2
14:29 51.4 °F 40.5 °F 29.96 in West 2.0 mph 5.0 mph 66% 0.00 in meteobridge W/m2
14:34 51.3 °F 40.3 °F 29.96 in Calm   3.0 mph 66% 0.00 in meteobridge W/m2
14:39 51.1 °F 40.1 °F 29.96 in NW 2.9 mph 3.0 mph 66% 0.00 in meteobridge W/m2
14:44 51.1 °F 40.5 °F 29.96 in Calm   5.0 mph 67% 0.00 in meteobridge W/m2
14:49 51.3 °F 40.6 °F 29.96 in West 2.9 mph 9.0 mph 67% 0.00 in meteobridge W/m2
14:54 51.3 °F 40.3 °F 29.96 in Calm   4.0 mph 66% 0.00 in meteobridge W/m2
14:59 51.1 °F 40.5 °F 29.96 in NW 2.9 mph 8.0 mph 67% 0.00 in meteobridge W/m2
15:04 50.7 °F 40.1 °F 29.96 in NNE 6.0 mph 7.0 mph 67% 0.00 in meteobridge W/m2
15:09 51.1 °F 40.5 °F 29.96 in Calm   9.0 mph 67% 0.00 in meteobridge W/m2
15:14 52.2 °F 40.3 °F 29.96 in East 4.0 mph 4.0 mph 64% 0.00 in meteobridge W/m2
15:19 52.7 °F 39.6 °F 29.95 in NW 4.9 mph 7.0 mph 61% 0.00 in meteobridge W/m2
15:24 53.2 °F 38.5 °F 29.95 in NW 0.9 mph 12.0 mph 57% 0.00 in meteobridge W/m2
15:29 53.6 °F 37.8 °F 29.95 in Calm   9.0 mph 55% 0.00 in meteobridge W/m2
15:34 53.6 °F 37.4 °F 29.95 in Calm   5.0 mph 54% 0.00 in meteobridge W/m2
15:39 53.4 °F 38.1 °F 29.95 in WSW 2.9 mph 7.0 mph 56% 0.00 in meteobridge W/m2
15:44 53.4 °F 38.1 °F 29.95 in Calm   6.0 mph 56% 0.00 in meteobridge W/m2
15:49 53.4 °F 38.1 °F 29.94 in Calm   4.0 mph 56% 0.00 in meteobridge W/m2
15:54 53.6 °F 38.3 °F 29.94 in Calm   7.0 mph 56% 0.00 in meteobridge W/m2
15:59 53.8 °F 37.9 °F 29.94 in West 4.9 mph 6.0 mph 55% 0.00 in meteobridge W/m2
16:04 54.0 °F 37.8 °F 29.94 in NW 2.9 mph 7.0 mph 54% 0.00 in meteobridge W/m2
16:09 54.1 °F 37.9 °F 29.93 in WNW 2.9 mph 4.0 mph 54% 0.00 in meteobridge W/m2
16:14 54.7 °F 37.9 °F 29.93 in Calm   2.0 mph 53% 0.00 in meteobridge W/m2
16:19 55.2 °F 37.4 °F 29.93 in Calm   7.0 mph 51% 0.00 in meteobridge W/m2
16:24 55.8 °F 36.9 °F 29.93 in Calm   2.0 mph 49% 0.00 in meteobridge W/m2
16:29 55.9 °F 37.0 °F 29.93 in West 2.9 mph 4.0 mph 49% 0.00 in meteobridge W/m2
16:34 55.9 °F 37.0 °F 29.93 in NNW 0.9 mph 1.0 mph 49% 0.00 in meteobridge W/m2
16:39 55.8 °F 36.9 °F 29.93 in Calm   6.0 mph 49% 0.00 in meteobridge W/m2
16:44 55.4 °F 36.5 °F 29.93 in Calm   2.0 mph 49% 0.00 in meteobridge W/m2
16:49 55.0 °F 36.7 °F 29.93 in East 2.0 mph 6.0 mph 50% 0.00 in meteobridge W/m2
16:54 54.9 °F 37.0 °F 29.93 in North 2.9 mph 5.0 mph 51% 0.00 in meteobridge W/m2
16:59 55.0 °F 37.2 °F 29.92 in Calm   5.0 mph 51% 0.00 in meteobridge W/m2
17:04 55.4 °F 37.0 °F 29.93 in Calm     50% 0.00 in meteobridge W/m2
17:09 55.8 °F 35.8 °F 29.93 in WSW 6.0 mph 6.0 mph 47% 0.00 in meteobridge W/m2
17:14 56.1 °F 35.6 °F 29.92 in Calm   8.0 mph 46% 0.00 in meteobridge W/m2
17:19 56.5 °F 36.0 °F 29.93 in NW 0.9 mph 9.0 mph 46% 0.00 in meteobridge W/m2
17:24 56.7 °F 35.1 °F 29.93 in NE 6.0 mph 8.0 mph 44% 0.00 in meteobridge W/m2
17:29 56.7 °F 35.6 °F 29.93 in Calm   4.0 mph 45% 0.00 in meteobridge W/m2
17:34 56.8 °F 35.2 °F 29.93 in Calm   6.0 mph 44% 0.00 in meteobridge W/m2
17:39 57.0 °F 36.0 °F 29.93 in NW 0.9 mph 5.0 mph 45% 0.00 in meteobridge W/m2
17:44 57.0 °F 35.2 °F 29.93 in WNW 4.0 mph 8.0 mph 44% 0.00 in meteobridge W/m2
17:49 56.8 °F 35.2 °F 29.93 in WNW 0.9 mph 4.0 mph 44% 0.00 in meteobridge W/m2
17:54 56.7 °F 35.1 °F 29.93 in NNE 6.0 mph 6.0 mph 44% 0.00 in meteobridge W/m2
17:59 56.1 °F 35.1 °F 29.93 in ESE 4.0 mph 5.0 mph 45% 0.00 in meteobridge W/m2
18:04 55.9 °F 34.9 °F 29.93 in NW 4.0 mph 12.0 mph 45% 0.00 in meteobridge W/m2
18:09 55.9 °F 34.9 °F 29.93 in West 2.0 mph 5.0 mph 45% 0.00 in meteobridge W/m2
18:14 55.8 °F 34.7 °F 29.93 in WSW 2.0 mph 8.0 mph 45% 0.00 in meteobridge W/m2
18:19 55.6 °F 34.5 °F 29.93 in Calm   4.0 mph 45% 0.00 in meteobridge W/m2
18:24 55.6 °F 34.5 °F 29.93 in Calm   3.0 mph 45% 0.00 in meteobridge W/m2
18:29 55.6 °F 35.1 °F 29.93 in Calm   2.0 mph 46% 0.00 in meteobridge W/m2
18:34 55.6 °F 35.6 °F 29.93 in West 2.0 mph 6.0 mph 47% 0.00 in meteobridge W/m2
18:39 55.6 °F 35.1 °F 29.93 in Calm     46% 0.00 in meteobridge W/m2
18:44 55.6 °F 35.6 °F 29.93 in Calm     47% 0.00 in meteobridge W/m2
18:49 55.4 °F 34.9 °F 29.93 in SSE 2.0 mph 2.0 mph 46% 0.00 in meteobridge W/m2
18:54 55.2 °F 34.9 °F 29.93 in Calm   5.0 mph 46% 0.00 in meteobridge W/m2
18:59 55.2 °F 34.9 °F 29.93 in Calm   1.0 mph 46% 0.00 in meteobridge W/m2
19:04 55.0 °F 35.2 °F 29.93 in West 2.0 mph 3.0 mph 47% 0.00 in meteobridge W/m2
19:09 54.9 °F 35.1 °F 29.93 in Calm   2.0 mph 47% 0.00 in meteobridge W/m2
19:14 55.0 °F 34.7 °F 29.93 in Calm   5.0 mph 46% 0.00 in meteobridge W/m2
19:19 55.0 °F 36.7 °F 29.93 in Calm     50% 0.00 in meteobridge W/m2
19:24 55.0 °F 35.2 °F 29.93 in Calm   2.0 mph 47% 0.00 in meteobridge W/m2
19:29 54.9 °F 35.1 °F 29.94 in Calm     47% 0.00 in meteobridge W/m2
19:34 54.7 °F 34.9 °F 29.94 in Calm   1.0 mph 47% 0.00 in meteobridge W/m2
19:39 54.3 °F 34.5 °F 29.93 in Calm   5.0 mph 47% 0.00 in meteobridge W/m2
19:44 54.3 °F 34.0 °F 29.93 in Calm     46% 0.00 in meteobridge W/m2
19:49 54.1 °F 34.9 °F 29.94 in Calm   3.0 mph 48% 0.00 in meteobridge W/m2
19:54 54.0 °F 35.2 °F 29.94 in Calm     49% 0.00 in meteobridge W/m2
19:59 53.8 °F 35.6 °F 29.94 in Calm     50% 0.00 in meteobridge W/m2
20:04 53.4 °F 35.2 °F 29.94 in Calm   1.0 mph 50% 0.00 in meteobridge W/m2
20:09 53.2 °F 35.1 °F 29.94 in Calm     50% 0.00 in meteobridge W/m2
20:14 53.1 °F 34.3 °F 29.94 in Calm     49% 0.00 in meteobridge W/m2
20:19 52.9 °F 35.2 °F 29.95 in Calm   3.0 mph 51% 0.00 in meteobridge W/m2
20:24 52.5 °F 34.3 °F 29.95 in Calm     50% 0.00 in meteobridge W/m2
20:29 52.5 °F 35.4 °F 29.95 in Calm     52% 0.00 in meteobridge W/m2
20:34 52.3 °F 35.8 °F 29.95 in Calm   1.0 mph 53% 0.00 in meteobridge W/m2
20:39 52.5 °F 34.9 °F 29.95 in Calm   4.0 mph 51% 0.00 in meteobridge W/m2
20:44 52.5 °F 34.3 °F 29.95 in Calm     50% 0.00 in meteobridge W/m2
20:49 52.5 °F 34.3 °F 29.95 in Calm   2.0 mph 50% 0.00 in meteobridge W/m2
20:54 52.5 °F 34.3 °F 29.96 in NW 0.9 mph 5.0 mph 50% 0.00 in meteobridge W/m2
20:59 52.7 °F 34.5 °F 29.96 in Calm   3.0 mph 50% 0.00 in meteobridge W/m2
21:04 52.7 °F 34.5 °F 29.96 in Calm     50% 0.00 in meteobridge W/m2
21:09 52.7 °F 34.2 °F 29.96 in NW 0.9 mph 1.0 mph 49% 0.00 in meteobridge W/m2
21:14 52.5 °F 34.9 °F 29.97 in SW 2.9 mph 15.0 mph 51% 0.00 in meteobridge W/m2
21:19 52.7 °F 35.6 °F 29.97 in Calm   4.0 mph 52% 0.00 in meteobridge W/m2
21:24 52.5 °F 36.0 °F 29.97 in Calm   1.0 mph 53% 0.00 in meteobridge W/m2
21:29 52.3 °F 36.1 °F 29.97 in Calm   8.0 mph 54% 0.00 in meteobridge W/m2
21:34 52.0 °F 37.2 °F 29.98 in NE 2.0 mph 8.0 mph 57% 0.00 in meteobridge W/m2
21:39 51.8 °F 37.0 °F 29.97 in Calm   4.0 mph 57% 0.00 in meteobridge W/m2
21:44 51.6 °F 37.4 °F 29.98 in Calm   6.0 mph 58% 0.00 in meteobridge W/m2
21:49 51.3 °F 37.4 °F 29.98 in NE 2.9 mph 18.0 mph 59% 0.00 in meteobridge W/m2
21:54 51.1 °F 37.8 °F 29.98 in NNW 10.1 mph 10.0 mph 60% 0.00 in meteobridge W/m2
21:59 50.7 °F 37.4 °F 29.98 in SE 0.9 mph 12.0 mph 60% 0.00 in meteobridge W/m2
22:04 50.5 °F 37.2 °F 29.98 in NW 4.0 mph 7.0 mph 60% 0.00 in meteobridge W/m2
22:09 50.2 °F 36.9 °F 29.99 in NW 11.0 mph 16.0 mph 60% 0.00 in meteobridge W/m2
22:14 49.8 °F 36.5 °F 29.99 in Calm   7.0 mph 60% 0.00 in meteobridge W/m2
22:19 49.6 °F 36.0 °F 30.00 in WNW 4.0 mph 8.0 mph 59% 0.00 in meteobridge W/m2
22:24 49.3 °F 35.6 °F 30.00 in Calm   6.0 mph 59% 0.00 in meteobridge W/m2
22:29 48.9 °F 35.2 °F 30.01 in NNW 2.0 mph 8.0 mph 59% 0.00 in meteobridge W/m2
22:34 48.6 °F 34.5 °F 30.01 in NW 2.0 mph 8.0 mph 58% 0.00 in meteobridge W/m2
22:39 48.2 °F 34.2 °F 30.01 in WNW 4.0 mph 8.0 mph 58% 0.00 in meteobridge W/m2
22:44 47.8 °F 34.2 °F 30.01 in NNW 2.0 mph 9.0 mph 59% 0.00 in meteobridge W/m2
22:49 47.5 °F 33.4 °F 30.01 in North 4.9 mph 9.0 mph 58% 0.00 in meteobridge W/m2
22:54 47.1 °F 33.1 °F 30.01 in West 4.0 mph 8.0 mph 58% 0.00 in meteobridge W/m2
22:59 46.9 °F 32.9 °F 30.02 in Calm   7.0 mph 58% 0.00 in meteobridge W/m2
23:04 46.8 °F 32.7 °F 30.02 in Calm   11.0 mph 58% 0.00 in meteobridge W/m2
23:09 46.4 °F 32.4 °F 30.02 in NW 2.0 mph 8.0 mph 58% 0.00 in meteobridge W/m2
23:14 46.0 °F 32.0 °F 30.03 in NNW 4.0 mph 5.0 mph 58% 0.00 in meteobridge W/m2
23:19 45.9 °F 32.0 °F 30.03 in NW 4.9 mph 10.0 mph 58% 0.00 in meteobridge W/m2
23:24 45.5 °F 32.0 °F 30.03 in NW 2.0 mph 6.0 mph 59% 0.00 in meteobridge W/m2
23:29 45.3 °F 31.8 °F 30.03 in Calm   1.0 mph 59% 0.00 in meteobridge W/m2
23:34 45.1 °F 31.6 °F 30.04 in Calm   5.0 mph 59% 0.00 in meteobridge W/m2
23:39 45.0 °F 31.1 °F 30.04 in Calm   5.0 mph 58% 0.00 in meteobridge W/m2
23:44 44.6 °F 30.7 °F 30.03 in Calm   8.0 mph 58% 0.00 in meteobridge W/m2
23:49 44.4 °F 30.9 °F 30.03 in North 0.9 mph 4.0 mph 59% 0.00 in meteobridge W/m2
23:54 44.2 °F 30.7 °F 30.03 in WNW 2.9 mph 9.0 mph 59% 0.00 in meteobridge W/m2
23:59 44.1 °F 30.2 °F 30.04 in Calm   6.0 mph 58% 0.00 in meteobridge W/m2
EllijayWeather
Compliments of Weather Underground - 2.5 mb